User: anonymous   Login
Location: Caltech
(34.1382°N, 118.1253°W)
Time: 18:46:47
(UTC-08:00)
Language:

Gurwin Techsat 1B - Orbit

View from above orbital plane
View from above orbital plane
View from above satellite
View from above satellite

Ground track
Ground track

The orbit data is extracted from the following two-line orbital elements,

1 25397U 98043D   14355.14710815  .00000240  00000-0  12394-3 0  5258
2 25397 098.4972 306.4081 0002401 114.5811 006.4433 14.23498917854462
Epoch (UTC): 21 December 2014 03:31:50
Eccentricity: 0.0002401
inclination: 98.4972°
perigee height: 812 km
apogee height: 815 km
right ascension of ascending node: 306.4081°
argument of perigee: 114.5811°
revolutions per day: 14.23498917
mean anomaly at epoch: 6.4433°
orbit number at epoch: 85446

The dashed part of the orbit path shows where the satellite is in the earth's shadow,  

DLR